SAA074 FAOR-FYWH

Flight info

Callsign SAA074
Flight time N/A
Altitude 38000
Route VASUR3A VASUR UQ24 ETOSA UL435 XOXAM UN182 AXODO AXODO1B
Aircraft A320/M-SDE3FGHIRWY/LB1

Departure

Time 2026-04-30 10:22
Airport O.R. Tambo International Airport (FAOR)

Arrival

Time N/A
Airport Hosea Kutako International Airport (FYWH)
Time Latitude Longitude Altitude Speed Heading
2026-04-30 09:43 -26.13686 28.23149 5547 ft 0 kts
2026-04-30 10:12 -26.13705 28.23146 5547 ft 4 kts 12°
2026-04-30 10:12 -26.13731 28.23137 5550 ft 4 kts 34°
2026-04-30 10:13 -26.13746 28.23118 5547 ft 3 kts 89°
2026-04-30 10:13 -26.13746 28.23113 5547 ft 0 kts 96°
2026-04-30 10:17 -26.13748 28.23134 5551 ft 3 kts 96°
2026-04-30 10:17 -26.13751 28.23163 5548 ft 4 kts 96°
2026-04-30 10:18 -26.13755 28.23203 5551 ft 6 kts 98°
2026-04-30 10:18 -26.13761 28.23252 5547 ft 7 kts 97°
2026-04-30 10:18 -26.13772 28.23305 5551 ft 7 kts 117°
2026-04-30 10:19 -26.13862 28.23371 5550 ft 8 kts 110°
2026-04-30 10:19 -26.13873 28.23411 5553 ft 2 kts 107°
2026-04-30 10:19 -26.13874 28.23413 5552 ft 0 kts 107°
2026-04-30 10:19 -26.13877 28.23425 5553 ft 3 kts 105°
2026-04-30 10:20 -26.13883 28.23452 5559 ft 5 kts 105°
2026-04-30 10:20 -26.13914 28.23575 5562 ft 9 kts 106°
2026-04-30 10:20 -26.13929 28.23632 5563 ft 6 kts 106°
2026-04-30 10:21 -26.13915 28.23662 5564 ft 6 kts 15°
2026-04-30 10:21 -26.13909 28.23664 5564 ft 0 kts 12°
2026-04-30 10:21 -26.13908 28.23664 5564 ft 2 kts 12°
2026-04-30 10:22 -26.13704 28.23726 5558 ft 67 kts 15°
2026-04-30 10:22 -26.13050 28.23929 5545 ft 126 kts 15°
2026-04-30 10:22 -26.12057 28.24244 5637 ft 162 kts 14°
2026-04-30 10:22 -26.10986 28.24590 6445 ft 160 kts 12°
2026-04-30 10:23 -26.09909 28.24938 7085 ft 163 kts 12°
2026-04-30 10:23 -26.08702 28.25302 7331 ft 195 kts 13°
2026-04-30 10:23 -26.07315 28.25733 7674 ft 221 kts 12°
2026-04-30 10:23 -26.05715 28.25861 7968 ft 248 kts 345°
2026-04-30 10:24 -26.04226 28.24848 8151 ft 266 kts 309°
2026-04-30 10:24 -26.03380 28.22988 9068 ft 272 kts 293°
2026-04-30 10:24 -26.02832 28.20969 10091 ft 273 kts 294°
2026-04-30 10:24 -26.01895 28.19155 10760 ft 277 kts 314°
2026-04-30 10:25 -26.00304 28.17838 11049 ft 297 kts 330°
2026-04-30 10:25 -25.98470 28.16669 11566 ft 309 kts 330°
2026-04-30 10:25 -25.96584 28.15470 12232 ft 315 kts 330°
2026-04-30 10:25 -25.94666 28.14242 12952 ft 320 kts 329°
2026-04-30 10:26 -25.92752 28.13006 13671 ft 325 kts 329°
2026-04-30 10:26 -25.90760 28.11710 14349 ft 330 kts 329°
2026-04-30 10:26 -25.88797 28.10429 14997 ft 333 kts 328°
2026-04-30 10:26 -25.86795 28.09122 15641 ft 336 kts 328°
2026-04-30 10:27 -25.84768 28.07800 16278 ft 339 kts 328°
2026-04-30 10:27 -25.82727 28.06471 16922 ft 342 kts 328°
2026-04-30 10:27 -25.80655 28.05126 17529 ft 346 kts 327°
2026-04-30 10:27 -25.78567 28.03769 18163 ft 349 kts 327°
2026-04-30 10:28 -25.76461 28.02401 18738 ft 353 kts 327°
2026-04-30 10:28 -25.74338 28.01024 19281 ft 355 kts 327°
2026-04-30 10:28 -25.72200 27.99637 19856 ft 357 kts 327°
2026-04-30 10:28 -25.70050 27.98241 20413 ft 359 kts 327°
2026-04-30 10:29 -25.67885 27.96835 20969 ft 362 kts 327°
2026-04-30 10:29 -25.65708 27.95422 21518 ft 364 kts 327°
2026-04-30 10:29 -25.63510 27.93999 22064 ft 367 kts 327°
2026-04-30 10:29 -25.61298 27.92569 22600 ft 370 kts 327°
2026-04-30 10:30 -25.59073 27.91123 23145 ft 372 kts 325°
2026-04-30 10:30 -25.57022 27.89391 23677 ft 372 kts 315°
2026-04-30 10:30 -25.55318 27.87232 24125 ft 374 kts 304°
2026-04-30 10:30 -25.53987 27.84753 24559 ft 376 kts 299°
2026-04-30 10:31 -25.52718 27.82220 24999 ft 378 kts 299°
2026-04-30 10:31 -25.51431 27.79675 25438 ft 380 kts 299°
2026-04-30 10:31 -25.50131 27.77118 25862 ft 382 kts 299°
2026-04-30 10:31 -25.48824 27.74554 26276 ft 384 kts 299°
2026-04-30 10:32 -25.47510 27.71973 26710 ft 386 kts 299°
2026-04-30 10:32 -25.46190 27.69380 27114 ft 387 kts 299°
2026-04-30 10:32 -25.44864 27.66777 27515 ft 389 kts 299°
2026-04-30 10:32 -25.43530 27.64160 27905 ft 391 kts 299°
2026-04-30 10:33 -25.42194 27.61536 28297 ft 393 kts 299°
2026-04-30 10:33 -25.40848 27.58892 28673 ft 395 kts 299°
2026-04-30 10:33 -25.39498 27.56240 29080 ft 397 kts 299°
2026-04-30 10:33 -25.38136 27.53565 29477 ft 399 kts 299°
2026-04-30 10:34 -25.36772 27.50887 29869 ft 402 kts 299°
2026-04-30 10:34 -25.35395 27.48187 30260 ft 404 kts 299°
2026-04-30 10:34 -25.34011 27.45474 30614 ft 406 kts 299°
2026-04-30 10:34 -25.32620 27.42751 30907 ft 407 kts 299°
2026-04-30 10:35 -25.31243 27.40056 31236 ft 409 kts 299°
2026-04-30 10:35 -25.29843 27.37312 31543 ft 411 kts 299°
2026-04-30 10:35 -25.28438 27.34559 31871 ft 412 kts 299°
2026-04-30 10:35 -25.27022 27.31794 32204 ft 413 kts 299°
2026-04-30 10:36 -25.25615 27.29044 32662 ft 411 kts 299°
2026-04-30 10:36 -25.24209 27.26297 33137 ft 408 kts 299°
2026-04-30 10:36 -25.22813 27.23577 33621 ft 406 kts 299°
2026-04-30 10:36 -25.21425 27.20870 34121 ft 404 kts 299°
2026-04-30 10:37 -25.20072 27.18168 34578 ft 402 kts 297°
2026-04-30 10:37 -25.18821 27.15421 35047 ft 399 kts 295°
2026-04-30 10:37 -25.17651 27.12657 35500 ft 396 kts 294°
2026-04-30 10:37 -25.16517 27.09891 35916 ft 394 kts 294°
2026-04-30 10:38 -25.15393 27.07140 36336 ft 393 kts 294°
2026-04-30 10:38 -25.14258 27.04399 36743 ft 391 kts 294°
2026-04-30 10:38 -25.13114 27.01682 37110 ft 390 kts 294°
2026-04-30 10:38 -25.11963 26.98980 37420 ft 390 kts 295°
2026-04-30 10:39 -25.10798 26.96271 37748 ft 390 kts 295°
2026-04-30 10:39 -25.09633 26.93577 38094 ft 389 kts 295°
2026-04-30 10:39 -25.08469 26.90887 38226 ft 388 kts 294°
2026-04-30 10:39 -25.07308 26.88201 38242 ft 387 kts 294°
2026-04-30 10:40 -25.05000 26.82848 38242 ft 385 kts 295°
2026-04-30 10:40 -25.02711 26.77520 38242 ft 385 kts 295°
2026-04-30 10:41 -25.00419 26.72193 38234 ft 385 kts 295°
2026-04-30 10:41 -24.98141 26.66899 38234 ft 385 kts 295°
2026-04-30 10:42 -24.95844 26.61570 38236 ft 385 kts 295°
2026-04-30 10:42 -24.93543 26.56239 38208 ft 385 kts 295°
2026-04-30 10:43 -24.91233 26.50904 38212 ft 386 kts 295°
2026-04-30 10:43 -24.88903 26.45559 38214 ft 387 kts 295°
2026-04-30 10:44 -24.86578 26.40204 38226 ft 388 kts 295°
2026-04-30 10:44 -24.84259 26.34842 39316 ft 389 kts 295°
2026-04-30 10:45 -24.83085 26.32136 38092 ft 392 kts 295°
2026-04-30 10:45 -24.81912 26.29440 38091 ft 389 kts 295°
2026-04-30 10:45 -24.79586 26.24109 38104 ft 387 kts 295°
2026-04-30 10:46 -24.77248 26.18758 38096 ft 385 kts 295°
2026-04-30 10:46 -24.74944 26.13479 38097 ft 385 kts 295°
2026-04-30 10:47 -24.72619 26.08155 38072 ft 387 kts 295°
2026-04-30 10:47 -24.70201 26.02855 38069 ft 388 kts 298°
2026-04-30 10:48 -24.67497 25.97709 38068 ft 388 kts 300°
2026-04-30 10:48 -24.64732 25.92618 38075 ft 387 kts 300°
2026-04-30 10:49 -24.62008 25.87524 38063 ft 386 kts 299°
2026-04-30 10:49 -24.59652 25.82245 38083 ft 386 kts 287°
2026-04-30 10:50 -24.58726 25.77441 38075 ft 386 kts 283°
2026-04-30 10:50 -24.57685 25.71655 38079 ft 387 kts 283°
2026-04-30 10:51 -24.56633 25.65855 38071 ft 386 kts 283°
2026-04-30 10:51 -24.55585 25.60073 38041 ft 386 kts 283°
2026-04-30 10:52 -24.54530 25.54281 38039 ft 388 kts 283°
2026-04-30 10:52 -24.53475 25.48465 38022 ft 388 kts 283°
2026-04-30 10:53 -24.52416 25.42650 38024 ft 388 kts 283°
2026-04-30 10:53 -24.51362 25.36873 38025 ft 388 kts 283°
2026-04-30 10:54 -24.50298 25.31064 38020 ft 388 kts 283°
2026-04-30 10:54 -24.49226 25.25271 37994 ft 387 kts 283°
2026-04-30 10:55 -24.48156 25.19467 37998 ft 388 kts 283°
2026-04-30 10:55 -24.47092 25.13666 37992 ft 388 kts 283°
2026-04-30 10:56 -24.46018 25.07855 38000 ft 388 kts 283°
2026-04-30 10:56 -24.44937 25.02053 37991 ft 388 kts 283°
2026-04-30 10:57 -24.43861 24.96274 38037 ft 385 kts 284°
2026-04-30 10:57 -24.42795 24.90522 38035 ft 385 kts 284°
2026-04-30 10:58 -24.41727 24.84771 38026 ft 385 kts 284°
2026-04-30 10:58 -24.40658 24.79053 37987 ft 386 kts 284°
2026-04-30 10:59 -24.39571 24.73270 37993 ft 388 kts 284°
2026-04-30 10:59 -24.38478 24.67470 37986 ft 388 kts 284°
2026-04-30 11:00 -24.37236 24.61717 37974 ft 387 kts 287°
2026-04-30 11:00 -24.35798 24.56030 37981 ft 387 kts 287°
2026-04-30 11:01 -24.34347 24.50346 37959 ft 387 kts 287°
2026-04-30 11:01 -24.32933 24.44641 37969 ft 388 kts 287°